Location: 5810 Zion Rd, Cleves, OH 45002, USA
(39.1922°N, 84.7113°W)
Time: 06:32:48
(UTC-05:00)

Courier 1B Rocket - Pass Details

Date: 10 December 2019
Orbit: 920 x 1202 km, 28.2° (Epoch: 24 January)

Event Time Altitude Azimuth Distance (km) Brightness Sun altitude
Rises 06:35:57 0° 227° (SW) 3,851 7.8 -13.4°
Reaches altitude 10° 06:39:21 10° 214° (SW) 2,844 7.3 -12.8°
Maximum altitude 06:44:32 23° 165° (SSE) 1,991 7.1 -11.9°
Drops below altitude 10° 06:49:29 10° 115° (ESE) 2,702 8.9 -11.0°
Sets 06:52:37 0° 101° (E) 3,613 10.0 -10.4°
